Starlink 30109

operational
NORAD ID: 56298 Int'l Des: 2023-056 Owner: SPXS Country: US Constellation: starlink
LEOCIRCULAR

Über Starlink 30109

Beschreibung wird geladen...

Live-Position

3D-Globus wird geladen...

Nächste Überflüge

Höhenverlauf

Altitude vs Time

uPlot chart will show altitude changes over time

Zweizeiliger Elementsatz

1 56298U 23056N 25258.20303336 -.00000038 00000-0 12220-4 0 9991
2 56298 43.0027 83.9663 0001071 268.1107 91.9613 15.02537516133682
Epoch: 15. Sept. 2025 • Age: 21 hours

Aktueller Status

Höhe 562.0 km
Geschwindigkeit 7.59 km/s
Subsatellitenpunkt 38.96°N, 114.86°E
Startdatum 19. Apr. 2023
Alter 2.4 years
Typ internet

Technische Details

Klassifizierung Payload
Masse 730.00 kg
Trockenmasse 700.00 kg
Gesamtmasse 730.00 kg
Länge 0.30 m
Durchmesser 4.10 m
Spannweite 29.00 m
Form Box + pan
Hersteller SPXS
Bus-Typ Starlink V2M
Phasenstatus In Orbit
Besitzer/Staat SPXS/US

Große Konstellationen

Loading constellations...